Cloud_Cover
100 100 100 100 100 100 100 100 100 97 6 45 75 51 68 100 100 100 100 100 100 100
100 100 100 100 100 100 100 100 100 99 32 5 65 64 20 91 98 100 100 100 100 100
100 100 100 100 100 100 100 100 100 100 100 83 48 76 79 67 90 100 100 100 100 100
100 100 100 100 100 100 100 100 100 100 73 69 93 76 79 80 98 100 100 100 100 100
100 100 100 100 100 100 100 100 100 34 44 94 84 9 24 77 100 100 100 100 100 100
100 100 100 100 100 100 100 100 100 100 100 60 8 6 6 5 5 77 100 100 100 100
100 100 100 100 100 100 100 100 100 100 66 20 6 22 56 70 86 99 95 82 90 100
100 100 100 100 100 100 99 97 100 72 5 5 5 22 99 100 65 89 100 100 100 100
100 100 100 100 100 100 96 15 6 5 5 5 5 18 5 64 74 100 100 100 100 97
100 100 90 36 92 58 13 5 53 27 5 23 73 5 5 94 100 100 100 82 96 92
98 86 99 65 60 39 6 44 71 51 80 40 59 44 13 61 54 100 100 100 100 100
100 99 100 41 71 84 100 100 100 100 100 100 100 100 100 100 100 100 100 100 100 100
100 50 97 100 99 80 97 100 100 100 100 100 100 100 100 100 100 100 100 100 100 100
100 100 100 97 100 100 100 100 100 100 100 100 100 100 100 100 100 100 100 100 100 100